Change the Weather History Date:

Monday, February 4, 2013

  Actual Average Record
Temperature  
Mean Temperature 39 °F 46 °F  
Max Temperature 51 °F 57 °F 83 °F (1989)
Min Temperature 26 °F 34 °F 15 °F (1980)
Degree Days  
Heating Degree Days 26 20  
Month to date heating degree days 104 80  
Since 1 July heating degree days 1653 1806  
Cooling Degree Days 0 0  
Month to date cooling degree days 0 0  
Year to date cooling degree days 5 2  
Moisture  
Dew Point 24 °F    
Average Humidity 56    
Maximum Humidity 85    
Minimum Humidity 27    
Precipitation  
Precipitation 0.00 in 0.09 in 2.70 in (1998)
Month to date precipitation T 0.35  
Year to date precipitation 1.80 3.65  
Sea Level Pressure  
Sea Level Pressure 30.07 in    
Wind  
Wind Speed 3 mph (SW)    
Max Wind Speed 9 mph    
Max Gust Speed 13 mph    
Visibility 10 miles    
Events      
T = Trace of Precipitation, MM = Missing Value Source: NWS Daily Summary

Daily Weather History Graph

Daily Weather History Graph

Search for Another Location

Airport or City:

Trip Planner

Search our weather history database for the weather conditions in past years. The results will help you decide how hot, cold, wet, or windy it might be!

Date:

Astronomy

Feb. 04, 2013 Rise Set
Actual Time 7:11 AM EST 5:47 PM EST
Civil Twilight 6:45 AM EST 6:14 PM EST
Nautical Twilight 6:15 AM EST 6:44 PM EST
Astronomical Twilight 5:45 AM EST 7:13 PM EST
Moon 1:42 AM EST (2/4) 12:13 PM EST (2/4)
Length of Visible Light 11h 28m
Length of Day
10h 35m
Last Quarter, 37% of the Moon is Illuminated
Feb 4
Last Quarter
Feb 10
New
Feb 17
First Quarter
Feb 25
Full
Mar 4
Last Quarter

Hourly Weather History & Observations

Time (EST) Temp. Windchill Dew Point Humidity Pressure Visibility Wind Dir Wind Speed Gust Speed Precip Events Conditions
12:53 AM 36.0 °F 33.3 °F 24.1 °F 62% 30.01 in 10.0 mi WNW 3.5 mph - N/A   Clear
1:53 AM 30.9 °F 27.5 °F 24.1 °F 76% 30.01 in 10.0 mi West 3.5 mph - N/A   Clear
2:53 AM 28.9 °F 22.8 °F 23.0 °F 78% 30.03 in 10.0 mi WSW 5.8 mph - N/A   Clear
3:53 AM 30.0 °F 25.2 °F 23.0 °F 75% 30.04 in 10.0 mi West 4.6 mph - N/A   Clear
6:53 AM 27.0 °F - 23.0 °F 85% 30.09 in 10.0 mi Calm Calm - N/A   Clear
7:53 AM 28.9 °F - 24.1 °F 82% 30.10 in 10.0 mi Calm Calm - N/A   Clear
8:53 AM 35.1 °F - 27.0 °F 72% 30.13 in 10.0 mi Calm Calm - N/A   Clear
9:53 AM 39.0 °F - 24.1 °F 55% 30.14 in 10.0 mi Calm Calm - N/A   Clear
10:53 AM 43.0 °F - 21.9 °F 43% 30.15 in 10.0 mi Calm Calm - N/A   Clear
11:53 AM 46.0 °F 44.8 °F 19.9 °F 35% 30.13 in 10.0 mi North 3.5 mph - N/A   Clear
12:53 PM 46.9 °F - 18.0 °F 32% 30.10 in 10.0 mi Variable 3.5 mph - N/A   Clear
1:53 PM 50.0 °F - 18.0 °F 28% 30.07 in 10.0 mi Calm Calm - N/A   Clear
2:53 PM 51.1 °F - 19.0 °F 28% 30.06 in 10.0 mi WNW 3.5 mph - N/A   Clear
3:53 PM 50.0 °F - 19.9 °F 31% 30.05 in 10.0 mi Calm Calm - N/A   Clear
4:53 PM 48.9 °F - 19.9 °F 32% 30.04 in 10.0 mi South 4.6 mph - N/A   Clear
5:53 PM 46.9 °F - 23.0 °F 39% 30.05 in 10.0 mi South 8.1 mph - N/A   Clear
6:53 PM 46.0 °F 43.1 °F 25.0 °F 44% 30.05 in 10.0 mi South 5.8 mph - N/A   Clear
7:53 PM 45.0 °F 41.2 °F 26.1 °F 48% 30.05 in 10.0 mi South 6.9 mph - N/A   Clear
8:53 PM 44.1 °F 40.8 °F 26.1 °F 49% 30.04 in 10.0 mi South 5.8 mph - N/A   Clear
9:53 PM 43.0 °F 39.5 °F 28.9 °F 58% 30.04 in 10.0 mi South 5.8 mph - N/A   Clear
10:53 PM 39.9 °F 35.8 °F 30.0 °F 68% 30.05 in 10.0 mi South 5.8 mph - N/A   Clear
11:53 PM 42.1 °F 37.1 °F 30.9 °F 65% 30.03 in 10.0 mi SSW 8.1 mph - N/A   Clear